This demonstration page uses our WeatherBlox Daily Observations layout. Learn more.

Hourly Observations for December 28, 2017

Temp ( °F °C ) Dew Point ( °F °C ) Humidity (%) Winds ( mph kmh ) Pressure ( in mb ) Visibility ( mi km ) Precip ( " mm )
12:42 am 00:42 Cloudy 11 -11.7 2 -16.7 67 67 SE 10 17 30.53 1034 10 16.0934 0 0
12:54 am 00:54 Cloudy 11 -11.7 2 -16.7 67 67 SE 12 19 30.51 1033 10 16.0934 0 0
1:54 am 01:54 Cloudy 11 -11.7 3 -16.1 70 70 SE 15 24 30.46 1032 10 16.0934 0 0
2:07 am 02:07 Cloudy 12 -11.1 4 -15.6 70 70 SE 13 20 30.5 1033 10 16.0934 0 0
2:54 am 02:54 Cloudy 12 -11.1 4 -15.6 70 70 SSE 12 19 30.47 1032 10 16.0934 0 0
3:54 am 03:54 Cloudy 13 -10.6 5 -15 70 70 SSE 13 20 30.43 1031 10 16.0934 0 0
4:54 am 04:54 Cloudy 13 -10.6 5 -15 70 70 SSE 12 19 30.44 1031 10 16.0934 0 0
5:54 am 05:54 Mostly Cloudy 13 -10.6 6 -14.4 74 74 SSE 9 15 30.44 1031 10 16.0934 0 0
6:54 am 06:54 Cloudy 13 -10.6 6 -14.4 74 74 SSE 12 19 30.42 1030 10 16.0934 0 0
7:54 am 07:54 Mostly Cloudy 13 -10.6 6 -14.4 74 74 S 3 6 30.46 1032 10 16.0934 0 0
8:54 am 08:54 Cloudy 14 -10 8 -13.3 77 77 Calm 30.48 1032 10 16.0934 0 0
9:54 am 09:54 Sunny 17 -8.3 9 -12.8 70 70 SSW 8 13 30.47 1032 10 16.0934 0 0
10:54 am 10:54 Sunny 19 -7.2 10 -12.2 68 68 SW 7 11 30.48 1032 10 16.0934 0 0
11:54 am 11:54 Sunny 21 -6.1 11 -11.7 65 65 WSW 5 7 30.47 1032 10 16.0934 0 0
12:54 pm 12:54 Sunny 23 -5 11 -11.7 60 60 W 9 15 30.46 1031 10 16.0934 0 0
1:54 pm 13:54 Sunny 24 -4.4 12 -11.1 60 60 W 10 17 30.42 1030 10 16.0934 0 0
2:54 pm 14:54 Sunny 23 -5 12 -11.1 63 63 WNW 8 13 30.43 1031 10 16.0934 0 0
3:54 pm 15:54 Sunny 22 -5.6 13 -10.6 68 68 N 9 15 30.46 1031 10 16.0934 0 0
4:54 pm 16:54 Sunny 21 -6.1 12 -11.1 68 68 NW 8 13 30.48 1032 10 16.0934 0 0
5:54 pm 17:54 Clear 17 -8.3 10 -12.2 74 74 Calm 30.47 1032 10 16.0934 0 0
6:54 pm 18:54 Clear 15 -9.4 9 -12.8 77 77 NNE 3 6 30.46 1032 10 16.0934 0 0
7:54 pm 19:54 Clear 18 -7.8 12 -11.1 77 77 NW 5 7 30.5 1033 10 16.0934 0 0
8:54 pm 20:54 Partly Cloudy 17 -8.3 12 -11.1 80 80 NE 3 6 30.5 1033 10 16.0934 0 0
9:54 pm 21:54 Partly Cloudy 18 -7.8 12 -11.1 77 77 NW 3 6 30.5 1033 10 16.0934 0 0
10:54 pm 22:54 Mostly Clear 15 -9.4 11 -11.7 84 84 NNE 6 9 30.5 1033 9 14.48406 0 0
11:54 pm 23:54 Partly Cloudy 17 -8.3 11 -11.7 77 77 NNE 8 13 30.48 1032 10 16.0934 0 0

Powered by AerisWeather